Novato, CA

8:38 AM PST on November 20, 2019 (GMT -0800)
Gnoss

Weather History for KDVO - September, 2019

Change the Weather History Date:

Friday, September 27, 2019

  Actual Average (KAPC) Record (KAPC)
Temperature  
Mean Temperature 63 °F -  
Max Temperature 71 °F 81 °F 97 °F (2010)
Min Temperature 55 °F 52 °F 45 °F (2005)
Degree Days  
Heating Degree Days 2    
Growing Degree Days 13 (Base 50)    
Moisture  
Dew Point 56 °F    
Average Humidity 79    
Maximum Humidity 94    
Minimum Humidity 57    
Precipitation  
Precipitation 0.00 in - - ()
Sea Level Pressure  
Sea Level Pressure 29.88 in    
Wind  
Wind Speed 8 mph ()    
Max Wind Speed 17 mph    
Max Gust Speed 28 mph    
Visibility 10.0 miles    
Events      
Averages and records for this station are not official NWS values.
T = Trace of Precipitation, MM = Missing Value Source: Averaged Metar Reports

Daily Weather History Graph

Daily Weather History Graph

Search for Another Location

Airport or City:

Astronomy

Sep. 27, 2019 Rise Set
Actual Time 7:02 AM PDT 6:59 PM PDT
Civil Twilight 6:35 AM PDT 7:25 PM PDT
Nautical Twilight 6:05 AM PDT 7:56 PM PDT
Astronomical Twilight 5:34 AM PDT 8:27 PM PDT
Moon 5:33 AM PDT (9/27) 6:51 PM PDT (9/27)
Length of Visible Light 12h 49m
Length of Day
11h 57m
Waning Crescent, 1% of the Moon is Illuminated
Sep 27
Waning Crescent
Sep 28
New
Oct 5
First Quarter
Oct 13
Full
Oct 21
Last Quarter

Hourly Weather History & Observations

Time (PDT) Temp. Dew Point Humidity Pressure Visibility Wind Dir Wind Speed Gust Speed Precip Events Conditions
12:15 AM 64.4 °F 59.0 °F 83% 29.95 in 10.0 mi WSW 10.4 mph 17.3 mph N/A   Mostly Cloudy
12:35 AM 64.4 °F 59.0 °F 83% 29.95 in 10.0 mi WSW 10.4 mph - N/A   Overcast
12:55 AM 64.4 °F 59.0 °F 83% 29.94 in 10.0 mi SW 9.2 mph - N/A   Overcast
1:15 AM 64.4 °F 59.0 °F 83% 29.95 in 10.0 mi SW 8.1 mph 15.0 mph N/A   Overcast
1:35 AM 64.4 °F 59.0 °F 83% 29.94 in 10.0 mi SW 8.1 mph 16.1 mph N/A   Overcast
1:55 AM 64.4 °F 59.0 °F 83% 29.95 in 10.0 mi SW 6.9 mph - N/A   Overcast
2:15 AM 64.4 °F 59.0 °F 83% 29.95 in 10.0 mi WSW 9.2 mph - N/A   Overcast
2:35 AM 64.4 °F 59.0 °F 83% 29.95 in 10.0 mi WSW 8.1 mph - N/A   Overcast
2:55 AM 64.4 °F 59.0 °F 83% 29.94 in 9.0 mi SW 9.2 mph - N/A   Overcast
3:15 AM 64.4 °F 59.0 °F 83% 29.93 in 10.0 mi WSW 8.1 mph 13.8 mph N/A   Overcast
3:35 AM 62.6 °F 59.0 °F 88% 29.93 in 10.0 mi SW 6.9 mph - N/A   Overcast
3:55 AM 64.4 °F 59.0 °F 83% 29.93 in 10.0 mi SW 6.9 mph - N/A   Overcast
4:15 AM 64.4 °F 59.0 °F 83% 29.92 in 10.0 mi West 9.2 mph 16.1 mph N/A   Overcast
4:35 AM 64.4 °F 59.0 °F 83% 29.93 in 10.0 mi Variable 4.6 mph 13.8 mph N/A   Overcast
4:55 AM 62.6 °F 59.0 °F 88% 29.93 in 9.0 mi NNW 9.2 mph - N/A   Overcast
5:15 AM 62.6 °F 59.0 °F 88% 29.93 in 10.0 mi WSW 9.2 mph - N/A   Overcast
5:55 AM 62.6 °F 57.2 °F 82% 29.93 in 10.0 mi Variable 5.8 mph - N/A   Overcast
6:15 AM 62.6 °F 57.2 °F 82% 29.93 in 10.0 mi Variable 4.6 mph - N/A   Overcast
6:35 AM 62.6 °F 57.2 °F 82% 29.94 in 10.0 mi Variable 3.5 mph - N/A   Overcast
6:55 AM 62.6 °F 57.2 °F 82% 29.94 in 10.0 mi WSW 5.8 mph - N/A   Overcast
7:15 AM 62.6 °F 57.2 °F 82% 29.93 in 10.0 mi SSW 8.1 mph - N/A   Overcast
7:35 AM 62.6 °F 57.2 °F 82% 29.94 in 10.0 mi Variable 4.6 mph - N/A   Overcast
7:55 AM 62.6 °F 57.2 °F 82% 29.94 in 10.0 mi WSW 6.9 mph - N/A   Overcast
8:15 AM 62.6 °F 57.2 °F 82% 29.94 in 10.0 mi SW 6.9 mph - N/A   Overcast
8:35 AM 62.6 °F 57.2 °F 82% 29.94 in 10.0 mi WSW 6.9 mph - N/A   Overcast
8:55 AM 62.6 °F 57.2 °F 82% 29.94 in 10.0 mi WSW 8.1 mph - N/A   Overcast
9:15 AM 62.6 °F 57.2 °F 82% 29.95 in 10.0 mi West 8.1 mph - N/A   Overcast
9:35 AM 62.6 °F 57.2 °F 82% 29.95 in 10.0 mi West 8.1 mph - N/A   Overcast
9:55 AM 62.6 °F 57.2 °F 82% 29.94 in 10.0 mi Variable 4.6 mph 12.7 mph N/A   Overcast
10:15 AM 62.6 °F 57.2 °F 82% 29.94 in 10.0 mi West 8.1 mph - N/A   Overcast
10:35 AM 62.6 °F 57.2 °F 82% 29.94 in 10.0 mi West 5.8 mph 12.7 mph N/A   Overcast
10:55 AM 64.4 °F 57.2 °F 77% 29.94 in 10.0 mi WSW 8.1 mph - N/A   Overcast
11:15 AM 64.4 °F 57.2 °F 77% 29.94 in 10.0 mi Variable 5.8 mph 12.7 mph N/A   Overcast
11:35 AM 64.4 °F 57.2 °F 77% 29.93 in 10.0 mi West 9.2 mph - N/A   Overcast
11:55 AM 66.2 °F 57.2 °F 73% 29.92 in 10.0 mi West 10.4 mph - N/A   Overcast
12:15 PM 66.2 °F 57.2 °F 73% 29.91 in 10.0 mi WSW 6.9 mph - N/A   Overcast
12:35 PM 68.0 °F 57.2 °F 68% 29.90 in 10.0 mi WSW 8.1 mph - N/A   Overcast
12:55 PM 69.8 °F 57.2 °F 64% 29.90 in 10.0 mi West 10.4 mph - N/A   Overcast
1:15 PM 68.0 °F 57.2 °F 68% 29.89 in 10.0 mi Variable 4.6 mph - N/A   Overcast
1:35 PM 71.6 °F 57.2 °F 60% 29.88 in 10.0 mi West 10.4 mph - N/A   Mostly Cloudy
1:55 PM 71.6 °F 55.4 °F 57% 29.87 in 10.0 mi WSW 9.2 mph - N/A   Clear
2:15 PM 71.6 °F 55.4 °F 57% 29.86 in 10.0 mi WSW 12.7 mph - N/A   Clear
2:35 PM 71.6 °F 55.4 °F 57% 29.85 in 10.0 mi WSW 12.7 mph - N/A   Clear
2:55 PM 69.8 °F 55.4 °F 60% 29.85 in 10.0 mi West 16.1 mph - N/A   Clear
3:15 PM 66.2 °F 55.4 °F 68% 29.85 in 10.0 mi WSW 16.1 mph - N/A   Clear
3:55 PM 64.4 °F 55.4 °F 73% 29.83 in 10.0 mi SW 13.8 mph 24.2 mph N/A   Partly Cloudy
4:15 PM 64.4 °F 53.6 °F 68% 29.84 in 10.0 mi WSW 8.1 mph 27.6 mph N/A   Clear
4:35 PM 64.4 °F 51.8 °F 64% 29.83 in 10.0 mi SW 10.4 mph - N/A   Clear
4:55 PM 64.4 °F 51.8 °F 64% 29.83 in 10.0 mi SW 11.5 mph 18.4 mph N/A   Clear
5:15 PM 62.6 °F 51.8 °F 68% 29.82 in 10.0 mi SW 12.7 mph - N/A   Clear
5:35 PM 60.8 °F 51.8 °F 72% 29.82 in 10.0 mi SW 12.7 mph 19.6 mph N/A   Clear
5:55 PM 60.8 °F 50.0 °F 68% 29.82 in 10.0 mi SW 15.0 mph - N/A   Clear
6:15 PM 59.0 °F 50.0 °F 72% 29.81 in 10.0 mi WSW 17.3 mph - N/A   Clear
6:35 PM 57.2 °F 50.0 °F 77% 29.82 in 10.0 mi WSW 10.4 mph 21.9 mph N/A   Clear
6:55 PM 57.2 °F 51.8 °F 82% 29.81 in 10.0 mi SW 10.4 mph - N/A   Mostly Cloudy
7:15 PM 57.2 °F 51.8 °F 82% 29.81 in 10.0 mi SW 8.1 mph - N/A   Mostly Cloudy
7:35 PM 57.2 °F 53.6 °F 88% 29.80 in 10.0 mi SW 11.5 mph - N/A   Mostly Cloudy
7:55 PM 57.2 °F 53.6 °F 88% 29.80 in 10.0 mi North - - N/A   Overcast
8:15 PM 57.2 °F 53.6 °F 88% 29.80 in 10.0 mi SW 9.2 mph - N/A   Overcast
8:35 PM 57.2 °F 53.6 °F 88% 29.80 in 10.0 mi SW 10.4 mph - N/A   Overcast
8:55 PM 57.2 °F 53.6 °F 88% 29.80 in 10.0 mi SW 5.8 mph 13.8 mph N/A   Overcast
9:15 PM 57.2 °F 53.6 °F 88% 29.80 in 10.0 mi WSW 5.8 mph - N/A   Overcast
9:35 PM 57.2 °F 53.6 °F 88% 29.80 in 10.0 mi SSW 6.9 mph - N/A   Overcast
9:55 PM 55.4 °F 53.6 °F 94% 29.79 in 10.0 mi SW 10.4 mph - N/A   Overcast
10:35 PM 55.4 °F 53.6 °F 94% 29.79 in 10.0 mi WSW 6.9 mph 13.8 mph N/A   Overcast
10:55 PM 55.4 °F 51.8 °F 88% 29.79 in 10.0 mi SW 8.1 mph - N/A   Overcast
11:15 PM 55.4 °F 51.8 °F 88% 29.78 in 10.0 mi WSW 5.8 mph - N/A   Overcast
11:35 PM 55.4 °F 51.8 °F 88% 29.78 in 10.0 mi Calm Calm - N/A   Overcast
11:55 PM 55.4 °F 51.8 °F 88% 29.78 in 10.0 mi Calm Calm - N/A   Overcast